Location: Ash Swamp
(41.5170°N, 74.6157°W)
Time: 17:25:32
(UTC+00:00)

SL-27 R/B - Pass Details

Date: 14 July 2020
Orbit: 420 x 470 km, 74.7° (Epoch: 04 August)

Event Time Altitude Azimuth Distance (km) Brightness Sun altitude
Exits shadow 08:35:02 13° 203° (SSW) 1,441 4.4 -10.3°
Maximum altitude 08:38:11 77° 289° (WNW) 469 2.4 -9.8°
Drops below altitude 10° 08:41:39 10° 15° (NNE) 1,577 6.1 -9.3°
Sets 08:43:43 0° 17° (NNE) 2,443 7.2 -9.1°
